[[{"header":{"parameterUnit":"m.s-1","parameterCategory":1,"la1":30.2991,"la2":30.254,"lo1":-89.0895,"lo2":-89.0444,"dy":0.0017,"dx":0.0017,"nx":28,"ny":28,"refTime":"2024-08-05T03:00:00:Z","depth":0,"parameterNumber":2,"parameterNumberName":"U-component_of_WINDS"},"data":[0,0,0,0,0,0,0,0,0,0,0,0,0,0,0,0,0,0,0,0,0,0,0,0,0,0,0,0,0,0,0,0,0,0,0,0,0,0,0,0,0,0,0,0,0,0,0,0,0,0,0,0,0,0,0,0,0,0,0.3584,0.3586,0,0.3735,0.3737,0.3738,0.3742,0.374,0.3738,0.3736,0.3896,0.3901,0.3907,0,0,0,0,0,0,0,0,0,0,0,0,0,0.3307,0.3312,0.3584,0.3586,0.3588,0.3735,0.3737,0.3739,0.3742,0.374,0.3738,0.3736,0.3894,0.3901,0.3908,0,0,0,0,0,0,0,0,0,0,0,0,0,0.344,0.3314,0.3584,0.3607,0.3611,0.3734,0.3737,0.3739,0.3743,0.374,0.3737,0.3734,0.3891,0.39,0.3909,0.4021,0,0,0.3936,0.394,0,0,0,0,0,0,0,0,0.3432,0.345,0.3602,0.3606,0.361,0.3717,0.3697,0.3834,0.3743,0.3693,0.3736,0.3733,0.3839,0.3852,0.3886,0.4028,0.4035,0.3937,0.3943,0.3946,0.3949,0,0,0,0,0,0,0,0.3423,0.3443,0.3644,0.3604,0.3609,0.3613,0.3628,0.3723,0.378,0.3697,0.3698,0.3715,0.384,0.3878,0.389,0.4037,0.3937,0.3945,0.395,0.3954,0.4284,0.4287,0,0,0,0,0,0,0.3408,0.3436,0.3639,0.3648,0.3512,0.362,0.3637,0.3685,0.3779,0.379,0.3717,0.3715,0.3864,0.388,0.3896,0.4037,0.3946,0.3955,0.396,0.4281,0.4285,0.4288,0,0,0,0,0,0,0.3402,0.3426,0.3633,0.3542,0.3569,0.3628,0.3681,0.369,0.3727,0.3794,0.3805,0.3745,0.3862,0.3883,0.399,0.4042,0.3959,0.3967,0.4277,0.4282,0.4287,0.4318,0,0,0,0,0,0,0.3394,0.3424,0.3465,0.3543,0.3574,0.3723,0.3684,0.3695,0.3742,0.374,0.3823,0.3834,0.3862,0.3977,0.3999,0.4053,0.3974,0.4272,0.4279,0.4285,0.4312,0.4323,0.4332,0,0,0,0,0,0.3384,0.3468,0.3467,0.3492,0.3626,0.3726,0.3744,0.3773,0.3746,0.379,0.3833,0.3831,0.4032,0.3988,0.4013,0.4071,0.4269,0.4277,0.4285,0.4308,0.4321,0.4332,0,0,0,0,0,0,0.3395,0.3478,0.3478,0.3589,0.365,0.3726,0.3782,0.3785,0.3856,0.3852,0.3886,0.3905,0.4013,0.4052,0.4001,0.4186,0.4148,0.4161,0.4157,0.417,0.418,0.417,0.3981,0,0,0,0,0,0.341,0.3482,0.3552,0.3643,0.3673,0.3722,0.3767,0.3784,0.385,0.3876,0.3927,0.3993,0.4072,0.4122,0.4198,0.4317,0.4338,0.4369,0.4379,0.4387,0.4399,0.4471,0.4487,0.4313,0.4313,0.4313,0,0,0.3442,0.3497,0.354,0.3646,0.3696,0.3773,0.3744,0.3826,0.3885,0.3889,0.3994,0.4035,0.411,0.4225,0.4278,0.4261,0.4451,0.4397,0.4403,0.4411,0.448,0.4496,0.4511,0.4319,0.4318,0.4317,0,0,0.3541,0.3588,0.3671,0.3722,0.3797,0.3829,0.3849,0.3926,0.3953,0.4058,0.4065,0.4136,0.4269,0.4324,0.437,0.4493,0.4496,0.4517,0.4571,0.464,0.4653,0.4666,0.4715,0.4731,0.4528,0.4528,0.4528,0,0.3573,0.3687,0.3714,0.3797,0.3846,0.3852,0.394,0.3988,0.4084,0.4119,0.4098,0.4268,0.4319,0.445,0.448,0.4515,0.4543,0.4509,0.4649,0.4661,0.4674,0.4721,0.4738,0.453,0.453,0.453,0.4529,0,0.3724,0.3804,0.3862,0.3956,0.4011,0.4095,0.4138,0.4191,0.4204,0.424,0.435,0.4412,0.4502,0.4534,0.4547,0.4668,0.4656,0.4641,0.4604,0.4692,0.4737,0.4755,0.4534,0.4533,0.4532,0.4532,0,0,0.3835,0.3943,0.3965,0.4009,0.4094,0.4157,0.4244,0.4331,0.4379,0.4445,0.4522,0.4636,0.4624,0.4676,0.4696,0.4756,0.4856,0.4735,0.4737,0.4759,0.4999,0.5012,0.5032,0.4857,0.486,0.4863,0.4994,0,0.3946,0.4099,0.4127,0.4261,0.4338,0.4347,0.4423,0.4485,0.4522,0.4594,0.4635,0.4717,0.4693,0.4725,0.4784,0.4831,0.4905,0.4821,0.4933,0.4936,0.4917,0.5055,0.5069,0.519,0.5012,0.5014,0.5017,0,0.4097,0.4168,0.431,0.4388,0.4422,0.4489,0.4575,0.4642,0.4715,0.4737,0.4796,0.481,0.4905,0.4861,0.4994,0.4936,0.4983,0.5014,0.5019,0.5034,0.4984,0.5078,0.5228,0.5248,0.5044,0.5042,0.504,0,0.4169,0.43,0.4403,0.444,0.4533,0.4582,0.4623,0.4692,0.4744,0.4819,0.4854,0.4939,0.4987,0.5053,0.5092,0.5055,0.5224,0.5182,0.5249,0.5249,0.5287,0.5285,0.5451,0.531,0.531,0.5309,0.5309,0,0.4293,0.4381,0.4438,0.4501,0.4601,0.4634,0.4733,0.4774,0.4836,0.4911,0.4923,0.4993,0.5037,0.5115,0.5145,0.5254,0.5274,0.5298,0.5306,0.5299,0.5297,0.5334,0.5328,0.5314,0.5313,0.5312,0.5311,0,0.4391,0.4432,0.4546,0.4625,0.4647,0.4718,0.4787,0.4852,0.4888,0.4983,0.5007,0.5066,0.5158,0.5202,0.5316,0.5337,0.5462,0.5462,0.5438,0.5441,0.5508,0.5503,0.5707,0.5738,0.5572,0.5574,0.5575,0,0.447,0.4538,0.4624,0.4675,0.4717,0.4798,0.4852,0.4887,0.4944,0.5033,0.5088,0.5181,0.5257,0.5405,0.546,0.5549,0.5554,0.5619,0.5567,0.556,0.5561,0.5558,0.5567,0.563,0.5631,0.5633,0.5634,0,0.4606,0.4624,0.47,0.4785,0.4848,0.4917,0.4984,0.5026,0.5073,0.5136,0.523,0.529,0.5407,0.5501,0.5595,0.564,0.5648,0.5649,0.5671,0.5667,0.5652,0.5666,0.5468,0.5645,0.5644,0.5643,0.5643,0.5642,0.47,0.4763,0.4835,0.4921,0.4975,0.5039,0.5105,0.515,0.5229,0.5327,0.5343,0.5446,0.552,0.5646,0.5695,0.5778,0.5763,0.5792,0.5801,0.5809,0.5815,0.5635,0.5794,0.5794,0.5794,0.5793,0.5793,0,0.4841,0.4888,0.4967,0.5061,0.513,0.5128,0.5204,0.5262,0.5351,0.542,0.5495,0.5606,0.5698,0.576,0.5854,0.5909,0.5915,0.5933,0.5932,0.5943,0.582,0.5795,0.5927,0.5927,0.5927,0.5927,0.5927,0.5927,0.4923,0.5031,0.5057,0.5194,0.5241,0.534,0.5384,0.5445,0.55,0.5623,0.5699,0.5739,0.5807,0.5906,0.5992,0.6008,0.6044,0.6064,0.608,0.5965,0.5951,0.5938,0.5914,0.607,0.607,0.6198,0.6199,0.62]},{"header":{"parameterUnit":"m.s-1","parameterCategory":1,"la1":30.2991,"la2":30.254,"lo1":-89.0895,"lo2":-89.0444,"dy":0.0017,"dx":0.0017,"nx":28,"ny":28,"refTime":"2024-08-05T03:00:00:Z","depth":0,"parameterNumber":3,"parameterNumberName":"V-component_of_WINDS"},"data":[0,0,0,0,0,0,0,0,0,0,0,0,0,0,0,0,0,0,0,0,0,0,0,0,0,0,0,0,0,0,0,0,0,0,0,0,0,0,0,0,0,0,0,0,0,0,0,0,0,0,0,0,0,0,0,0,0,0,-2.1693,-2.1693,0,-2.1665,-2.1665,-2.1665,-2.1762,-2.1764,-2.1767,-2.177,-2.1737,-2.1734,-2.173,0,0,0,0,0,0,0,0,0,0,0,0,0,-2.183,-2.1827,-2.1694,-2.1693,-2.1693,-2.1665,-2.1665,-2.1665,-2.1761,-2.1765,-2.1768,-2.1771,-2.1739,-2.1734,-2.173,0,0,0,0,0,0,0,0,0,0,0,0,0,-2.1783,-2.1826,-2.1694,-2.1738,-2.1741,-2.1665,-2.1665,-2.1664,-2.176,-2.1765,-2.1769,-2.1773,-2.174,-2.1735,-2.1729,-2.1608,0,0,-2.1713,-2.1711,0,0,0,0,0,0,0,0,-2.1785,-2.1777,-2.1732,-2.1735,-2.1739,-2.1722,-2.1701,-2.1645,-2.1759,-2.1753,-2.177,-2.1775,-2.1728,-2.1724,-2.1709,-2.1607,-2.1605,-2.1712,-2.1709,-2.1707,-2.1705,0,0,0,0,0,0,0,-2.1788,-2.1779,-2.1682,-2.1731,-2.1735,-2.1759,-2.1757,-2.1691,-2.1716,-2.1754,-2.1761,-2.1756,-2.1731,-2.1714,-2.1709,-2.1605,-2.1713,-2.1708,-2.1704,-2.1702,-2.1404,-2.1399,0,0,0,0,0,0,-2.1786,-2.1781,-2.1683,-2.1681,-2.1773,-2.1752,-2.175,-2.1722,-2.1717,-2.1721,-2.1753,-2.1761,-2.1721,-2.1715,-2.1708,-2.1567,-2.1707,-2.1702,-2.1699,-2.1408,-2.1403,-2.1398,0,0,0,0,0,0,-2.1789,-2.1776,-2.1684,-2.1733,-2.1723,-2.1746,-2.1713,-2.172,-2.1703,-2.1716,-2.1721,-2.1731,-2.1724,-2.1716,-2.1633,-2.1567,-2.1699,-2.1694,-2.1414,-2.1407,-2.14,-2.1282,0,0,0,0,0,0,-2.1792,-2.1777,-2.1731,-2.1732,-2.172,-2.1609,-2.1709,-2.1716,-2.1694,-2.1704,-2.1697,-2.17,-2.1727,-2.1641,-2.1628,-2.1562,-2.169,-2.142,-2.1411,-2.1402,-2.1292,-2.1272,-2.1255,0,0,0,0,0,-2.1797,-2.1697,-2.1728,-2.1716,-2.1664,-2.1605,-2.1599,-2.1633,-2.1688,-2.1642,-2.1651,-2.17,-2.1577,-2.1631,-2.1618,-2.1549,-2.1424,-2.1413,-2.1403,-2.13,-2.1276,-2.1255,0,0,0,0,0,0,-2.1686,-2.1698,-2.1732,-2.1631,-2.1617,-2.1622,-2.1565,-2.1606,-2.1575,-2.1586,-2.1629,-2.1627,-2.1536,-2.1535,-2.1595,-2.1433,-2.151,-2.1496,-2.1436,-2.1413,-2.1395,-2.1397,-2.1686,0,0,0,0,0,-2.165,-2.1603,-2.1616,-2.1525,-2.1516,-2.1542,-2.1517,-2.1546,-2.1532,-2.1526,-2.1529,-2.1514,-2.1472,-2.1443,-2.1405,-2.1293,-2.1293,-2.124,-2.1221,-2.1206,-2.1193,-2.1135,-2.1111,-2.1363,-2.1363,-2.1363,0,0,-2.1575,-2.1576,-2.1543,-2.1503,-2.1495,-2.1445,-2.1536,-2.1478,-2.1441,-2.1517,-2.1439,-2.1441,-2.1427,-2.133,-2.1287,-2.1326,-2.1124,-2.1192,-2.118,-2.1175,-2.1122,-2.1098,-2.1077,-2.1356,-2.1357,-2.1358,0,0,-2.1412,-2.1408,-2.1332,-2.1324,-2.1312,-2.133,-2.1312,-2.1312,-2.1317,-2.124,-2.1297,-2.1254,-2.118,-2.1168,-2.1152,-2.0988,-2.1032,-2.0974,-2.0876,-2.0819,-2.08,-2.0782,-2.0724,-2.0702,-2.0962,-2.0961,-2.0961,0,-2.1318,-2.1246,-2.1288,-2.1227,-2.1208,-2.1277,-2.1201,-2.1191,-2.1166,-2.1151,-2.1196,-2.1107,-2.1102,-2.1003,-2.0964,-2.0948,-2.0929,-2.0974,-2.0799,-2.0782,-2.0767,-2.0711,-2.0689,-2.0955,-2.0955,-2.0956,-2.0957,0,-2.1132,-2.1081,-2.1022,-2.0999,-2.0973,-2.0905,-2.0936,-2.0906,-2.0937,-2.095,-2.0872,-2.087,-2.0833,-2.0812,-2.0841,-2.0718,-2.0742,-2.0792,-2.087,-2.0735,-2.0684,-2.0663,-2.0945,-2.0947,-2.0949,-2.0951,0,0,-2.0895,-2.0899,-2.0877,-2.0868,-2.0862,-2.0823,-2.0759,-2.0725,-2.0698,-2.068,-2.0626,-2.0564,-2.0612,-2.0593,-2.0622,-2.0572,-2.0443,-2.0629,-2.0629,-2.0594,-2.0308,-2.027,-2.0244,-2.0474,-2.047,-2.0467,-2.0309,0,-2.0734,-2.0625,-2.0663,-2.0551,-2.0505,-2.0572,-2.0517,-2.0507,-2.0518,-2.048,-2.0493,-2.0449,-2.0514,-2.0504,-2.0458,-2.0469,-2.0386,-2.0481,-2.0424,-2.0421,-2.0424,-2.0218,-2.0176,-2.0027,-2.029,-2.0286,-2.0284,0,-2.0531,-2.0508,-2.0392,-2.0397,-2.0379,-2.0328,-2.0301,-2.0264,-2.0255,-2.0267,-2.0249,-2.0289,-2.0226,-2.0306,-2.022,-2.0284,-2.0263,-2.0265,-2.026,-2.0255,-2.0343,-2.0206,-1.9981,-1.9958,-2.0253,-2.0255,-2.0257,0,-2.0369,-2.0309,-2.0232,-2.0223,-2.0226,-2.0189,-2.0189,-2.0184,-2.0162,-2.0139,-2.0125,-2.0094,-2.0077,-2.0052,-2.0083,-2.0138,-1.9992,-2.0074,-2.0,-1.9999,-1.9964,-1.9966,-1.9732,-1.9953,-1.9953,-1.9954,-1.9954,0,-2.0185,-2.0111,-2.016,-2.0113,-2.0033,-2.0078,-1.9997,-2.0004,-2.0,-1.9955,-2.0012,-1.9968,-2.0013,-1.9973,-1.9997,-1.9923,-1.9915,-1.9922,-1.9929,-1.9916,-1.9915,-1.9902,-1.9913,-1.9948,-1.9949,-1.995,-1.9951,0,-1.9989,-2.0019,-1.994,-1.9951,-1.9953,-1.9893,-1.9902,-1.9859,-1.9877,-1.9819,-1.9808,-1.9835,-1.9792,-1.9821,-1.9777,-1.9794,-1.9696,-1.9718,-1.9699,-1.9705,-1.9629,-1.9635,-1.9377,-1.9345,-1.9587,-1.9585,-1.9583,0,-1.9869,-1.9814,-1.9821,-1.9796,-1.9792,-1.9751,-1.973,-1.9773,-1.9748,-1.9736,-1.9694,-1.9657,-1.9628,-1.9557,-1.9572,-1.9539,-1.956,-1.9472,-1.9555,-1.9545,-1.9558,-1.956,-1.9555,-1.9454,-1.9451,-1.9449,-1.9447,0,-1.9652,-1.967,-1.9638,-1.9612,-1.9586,-1.9567,-1.9552,-1.9528,-1.9572,-1.9542,-1.95,-1.9478,-1.9436,-1.9397,-1.9371,-1.9371,-1.9415,-1.9422,-1.9402,-1.9388,-1.9379,-1.9382,-1.9652,-1.9426,-1.9428,-1.943,-1.9431,-1.9432,-1.9489,-1.9445,-1.9443,-1.9407,-1.9401,-1.9387,-1.9348,-1.9362,-1.9328,-1.9297,-1.9325,-1.9274,-1.9269,-1.9239,-1.9233,-1.9194,-1.923,-1.9202,-1.9195,-1.9187,-1.9176,-1.9387,-1.919,-1.919,-1.9191,-1.9191,-1.9192,0,-1.9275,-1.9278,-1.9245,-1.9224,-1.9195,-1.9244,-1.9231,-1.9203,-1.9159,-1.9151,-1.9123,-1.9076,-1.904,-1.9054,-1.9022,-1.8989,-1.9008,-1.8979,-1.8981,-1.898,-1.9146,-1.9166,-1.8963,-1.8963,-1.8963,-1.8963,-1.8963,-1.8963,-1.916,-1.9088,-1.9106,-1.9032,-1.9036,-1.8989,-1.8977,-1.8965,-1.8959,-1.8904,-1.8876,-1.8886,-1.8887,-1.8857,-1.8826,-1.8831,-1.8817,-1.8779,-1.8791,-1.8946,-1.8968,-1.8989,-1.9008,-1.8776,-1.8775,-1.8628,-1.8627,-1.8626]}]]